| time (UTC) | temp F | wind direction | speed knots | gust knots | rain 1hr in | rain 24hr in | rain mn in | humidity % | barometer mb |
| 20260508005008 | 93 | 272 | 1.7 | 6.1 | 0.00 | 0.00 | 0.00 | 9 | 1007.5 |
| 20260508004528 | 93 | 0 | 2.6 | 8.7 | 0.00 | 0.00 | 0.00 | 9 | 1007.5 |
| 20260508004013 | 93 | 269 | 4.3 | 9.6 | 0.00 | 0.00 | 0.00 | 9 | 1007.6 |
| 20260508003510 | 94 | 269 | 4.3 | 9.6 | 0.00 | 0.00 | 0.00 | 9 | 1007.4 |
| 20260508003026 | 94 | 267 | 1.7 | 7.0 | 0.00 | 0.00 | 0.00 | 9 | 1007.5 |
| 20260508002508 | 94 | 271 | 0.9 | 7.0 | 0.00 | 0.00 | 0.00 | 10 | 1007.5 |
| 20260508002010 | 94 | 285 | 1.7 | 9.6 | 0.00 | 0.00 | 0.00 | 10 | 1007.5 |
| 20260508001528 | 94 | 318 | 4.3 | 9.6 | 0.00 | 0.00 | 0.00 | 10 | 1007.6 |
| 20260508001010 | 95 | 327 | 4.3 | 9.6 | 0.00 | 0.00 | 0.00 | 9 | 1007.5 |
| 20260508000514 | 95 | 174 | 2.6 | 7.0 | 0.00 | 0.00 | 0.00 | 9 | 1007.7 |
| 20260508000027 | 95 | 291 | 1.7 | 7.8 | 0.00 | 0.00 | 0.00 | 10 | 1007.7 |
| 20260507235509 | 95 | 258 | 1.7 | 8.7 | 0.00 | 0.00 | 0.00 | 9 | 1007.6 |
| 20260507235010 | 95 | 288 | 4.3 | 8.7 | 0.00 | 0.00 | 0.00 | 10 | 1007.7 |
| 20260507234535 | 95 | 304 | 3.5 | 7.0 | 0.00 | 0.00 | 0.00 | 10 | 1007.5 |
| 20260507234010 | 95 | 301 | 0.9 | 6.1 | 0.00 | 0.00 | 0.00 | 10 | 1007.5 |
| 20260507233510 | 95 | 289 | 1.7 | 7.8 | 0.00 | 0.00 | 0.00 | 10 | 1007.6 |
| 20260507233029 | 95 | 271 | 0.9 | 7.8 | 0.00 | 0.00 | 0.00 | 10 | 1007.5 |
| 20260507232512 | 95 | 0 | 0.9 | 5.2 | 0.00 | 0.00 | 0.00 | 10 | 1007.6 |
| 20260507232011 | 94 | 0 | 1.7 | 5.2 | 0.00 | 0.00 | 0.00 | 10 | 1007.6 |
| 20260507231529 | 94 | 351 | 0.9 | 7.0 | 0.00 | 0.00 | 0.00 | 10 | 1007.5 |
| 20260507231011 | 95 | 0 | 1.7 | 10.4 | 0.00 | 0.00 | 0.00 | 10 | 1007.8 |
| 20260507230510 | 95 | 350 | 1.7 | 10.4 | 0.00 | 0.00 | 0.00 | 10 | 1007.8 |
| 20260507230029 | 95 | 283 | 3.5 | 11.3 | 0.00 | 0.00 | 0.00 | 10 | 1007.8 |
| 20260507225512 | 95 | 338 | 3.5 | 11.3 | 0.00 | 0.00 | 0.00 | 11 | 1007.9 |
| 20260507225010 | 95 | 331 | 2.6 | 9.6 | 0.00 | 0.00 | 0.00 | 11 | 1007.8 |
| 20260507224530 | 95 | 344 | 2.6 | 9.6 | 0.00 | 0.00 | 0.00 | 10 | 1007.9 |
| 20260507224008 | 95 | 0 | 1.7 | 6.1 | 0.00 | 0.00 | 0.00 | 10 | 1007.9 |
| 20260507223511 | 95 | 331 | 0.9 | 4.3 | 0.00 | 0.00 | 0.00 | 10 | 1008.0 |
| 20260507223029 | 95 | 0 | 0.0 | 12.2 | 0.00 | 0.00 | 0.00 | 10 | 1008.1 |
| 20260507222511 | 95 | 15 | 3.5 | 12.2 | 0.00 | 0.00 | 0.00 | 10 | 1008.1 |
| 20260507222011 | 95 | 360 | 5.2 | 11.3 | 0.00 | 0.00 | 0.00 | 9 | 1008.2 |
| 20260507221527 | 96 | 341 | 1.7 | 9.6 | 0.00 | 0.00 | 0.00 | 10 | 1008.1 |
| 20260507221009 | 96 | 284 | 4.3 | 9.6 | 0.00 | 0.00 | 0.00 | 10 | 1008.2 |
| 20260507220510 | 95 | 287 | 4.3 | 10.4 | 0.00 | 0.00 | 0.00 | 10 | 1008.1 |
| 20260507220029 | 95 | 329 | 5.2 | 10.4 | 0.00 | 0.00 | 0.00 | 10 | 1008.3 |
| 20260507215510 | 96 | 307 | 3.5 | 8.7 | 0.00 | 0.00 | 0.00 | 9 | 1008.4 |
| 20260507215009 | 96 | 250 | 0.9 | 7.8 | 0.00 | 0.00 | 0.00 | 10 | 1008.5 |
| 20260507214530 | 96 | 261 | 2.6 | 7.8 | 0.00 | 0.00 | 0.00 | 10 | 1008.6 |
| 20260507214009 | 96 | 246 | 1.7 | 6.1 | 0.00 | 0.00 | 0.00 | 10 | 1008.5 |
| 20260507213510 | 96 | 168 | 1.7 | 6.1 | 0.00 | 0.00 | 0.00 | 10 | 1008.7 |
| 20260507213030 | 96 | 23 | 0.0 | 4.3 | 0.00 | 0.00 | 0.00 | 10 | 1008.7 |
| 20260507212509 | 95 | 0 | 1.7 | 4.3 | 0.00 | 0.00 | 0.00 | 9 | 1008.8 |
| 20260507212011 | 96 | 324 | 1.7 | 4.3 | 0.00 | 0.00 | 0.00 | 9 | 1009.0 |
| 20260507211528 | 95 | 311 | 0.9 | 4.3 | 0.00 | 0.00 | 0.00 | 10 | 1009.0 |
| 20260507211008 | 96 | 145 | 1.7 | 7.0 | 0.00 | 0.00 | 0.00 | 9 | 1009.1 |
| 20260507210515 | 96 | 0 | 1.7 | 7.0 | 0.00 | 0.00 | 0.00 | 10 | 1009.1 |
| 20260507210029 | 95 | 5 | 2.6 | 7.0 | 0.00 | 0.00 | 0.00 | 10 | 1009.1 |
| 20260507205509 | 94 | 175 | 0.9 | 7.0 | 0.00 | 0.00 | 0.00 | 10 | 1009.3 |
| 20260507205010 | 94 | 167 | 2.6 | 7.0 | 0.00 | 0.00 | 0.00 | 9 | 1009.3 |
| 20260507204527 | 95 | 360 | 0.0 | 5.2 | 0.00 | 0.00 | 0.00 | 8 | 1009.3 |
| 20260507204010 | 94 | 5 | 1.7 | 8.7 | 0.00 | 0.00 | 0.00 | 10 | 1009.5 |
| 20260507203510 | 94 | 355 | 1.7 | 8.7 | 0.00 | 0.00 | 0.00 | 10 | 1009.6 |
| 20260507203028 | 94 | 355 | 5.2 | 8.7 | 0.00 | 0.00 | 0.00 | 10 | 1009.6 |
| 20260507202509 | 94 | 298 | 1.7 | 6.1 | 0.00 | 0.00 | 0.00 | 11 | 1009.6 |
| 20260507202013 | 93 | 90 | 0.9 | 6.1 | 0.00 | 0.00 | 0.00 | 11 | 1009.7 |
| 20260507201536 | 93 | 0 | 1.7 | 6.1 | 0.00 | 0.00 | 0.00 | 12 | 1009.8 |
| 20260507201009 | 92 | 107 | 0.9 | 6.1 | 0.00 | 0.00 | 0.00 | 12 | 1009.9 |
| 20260507200510 | 92 | 0 | 2.6 | 7.0 | 0.00 | 0.00 | 0.00 | 11 | 1009.9 |
| 20260507200029 | 93 | 92 | 2.6 | 7.0 | 0.00 | 0.00 | 0.00 | 12 | 1010.1 |
| 20260507195510 | 93 | 5 | 0.9 | 4.3 | 0.00 | 0.00 | 0.00 | 12 | 1010.1 |
| 20260507195010 | 92 | 119 | 0.0 | 3.5 | 0.00 | 0.00 | 0.00 | 12 | 1010.2 |
| 20260507194527 | 92 | 119 | 0.9 | 3.5 | 0.00 | 0.00 | 0.00 | 13 | 1010.3 |
| 20260507194012 | 92 | 117 | 1.7 | 4.3 | 0.00 | 0.00 | 0.00 | 12 | 1010.5 |
| 20260507193509 | 93 | 114 | 1.7 | 7.0 | 0.00 | 0.00 | 0.00 | 13 | 1010.5 |
| 20260507193030 | 93 | 0 | 1.7 | 7.0 | 0.00 | 0.00 | 0.00 | 13 | 1010.6 |
| 20260507192509 | 93 | 9 | 2.6 | 7.8 | 0.00 | 0.00 | 0.00 | 13 | 1010.7 |
| 20260507192009 | 94 | 13 | 1.7 | 7.8 | 0.00 | 0.00 | 0.00 | 13 | 1010.7 |
| 20260507191529 | 93 | 284 | 0.9 | 5.2 | 0.00 | 0.00 | 0.00 | 14 | 1010.8 |
| 20260507191010 | 92 | 284 | 1.7 | 4.3 | 0.00 | 0.00 | 0.00 | 15 | 1010.8 |
| 20260507190509 | 91 | 304 | 1.7 | 7.0 | 0.00 | 0.00 | 0.00 | 15 | 1011.0 |
| 20260507190030 | 90 | 355 | 1.7 | 7.0 | 0.00 | 0.00 | 0.00 | 15 | 1011.1 |
| 20260507185511 | 90 | 355 | 2.6 | 10.4 | 0.00 | 0.00 | 0.00 | 15 | 1011.1 |
| 20260507185009 | 90 | 12 | 0.0 | 10.4 | 0.00 | 0.00 | 0.00 | 16 | 1011.2 |
| 20260507184528 | 89 | 23 | 2.6 | 8.7 | 0.00 | 0.00 | 0.00 | 16 | 1011.3 |
| 20260507184011 | 89 | 5 | 0.9 | 4.3 | 0.00 | 0.00 | 0.00 | 16 | 1011.3 |
| 20260507183507 | 89 | 5 | 1.7 | 4.3 | 0.00 | 0.00 | 0.00 | 16 | 1011.4 |
| 20260507183036 | 89 | 333 | 2.6 | 4.3 | 0.00 | 0.00 | 0.00 | 16 | 1011.4 |
| 20260507182511 | 88 | 0 | 0.9 | 2.6 | 0.00 | 0.00 | 0.00 | 17 | 1011.4 |
| 20260507182013 | 88 | 0 | 0.0 | 3.5 | 0.00 | 0.00 | 0.00 | 17 | 1011.6 |
| 20260507181529 | 87 | 334 | 0.0 | 4.3 | 0.00 | 0.00 | 0.00 | 18 | 1011.6 |
| 20260507181010 | 87 | 334 | 1.7 | 7.0 | 0.00 | 0.00 | 0.00 | 18 | 1011.7 |
| 20260507180509 | 87 | 335 | 2.6 | 7.0 | 0.00 | 0.00 | 0.00 | 18 | 1011.8 |
| 20260507180027 | 87 | 334 | 2.6 | 6.1 | 0.00 | 0.00 | 0.00 | 17 | 1011.7 |
| 20260507175510 | 87 | 360 | 2.6 | 8.7 | 0.00 | 0.00 | 0.00 | 18 | 1011.7 |
| 20260507175009 | 87 | 21 | 1.7 | 8.7 | 0.00 | 0.00 | 0.00 | 18 | 1011.9 |
| 20260507174533 | 87 | 28 | 3.5 | 8.7 | 0.00 | 0.00 | 0.00 | 18 | 1011.9 |
| 20260507174011 | 87 | 24 | 0.9 | 5.2 | 0.00 | 0.00 | 0.00 | 18 | 1011.8 |
| 20260507173507 | 87 | 24 | 1.7 | 4.3 | 0.00 | 0.00 | 0.00 | 18 | 1012.0 |
| 20260507173033 | 87 | 0 | 0.9 | 4.3 | 0.00 | 0.00 | 0.00 | 18 | 1012.1 |
| 20260507172509 | 86 | 26 | 0.9 | 3.5 | 0.00 | 0.00 | 0.00 | 18 | 1012.2 |
| 20260507172010 | 86 | 0 | 0.0 | 3.5 | 0.00 | 0.00 | 0.00 | 19 | 1012.0 |
| 20260507171531 | 85 | 24 | 0.9 | 4.3 | 0.00 | 0.00 | 0.00 | 19 | 1012.2 |
| 20260507171010 | 85 | 32 | 0.9 | 4.3 | 0.00 | 0.00 | 0.00 | 19 | 1012.3 |
| 20260507170511 | 85 | 16 | 0.9 | 4.3 | 0.00 | 0.00 | 0.00 | 19 | 1012.2 |
| 20260507170028 | 84 | 119 | 0.9 | 3.5 | 0.00 | 0.00 | 0.00 | 20 | 1012.3 |
| 20260507165511 | 84 | 119 | 0.0 | 3.5 | 0.00 | 0.00 | 0.00 | 19 | 1012.2 |
| 20260507165009 | 84 | 115 | 0.0 | 3.5 | 0.00 | 0.00 | 0.00 | 19 | 1012.4 |
| 20260507164526 | 83 | 115 | 0.9 | 3.5 | 0.00 | 0.00 | 0.00 | 19 | 1012.3 |
| 20260507164007 | 82 | 161 | 0.0 | 1.7 | 0.00 | 0.00 | 0.00 | 20 | 1012.4 |
| 20260507163509 | 82 | 0 | 0.0 | 3.5 | 0.00 | 0.00 | 0.00 | 20 | 1012.4 |
| 20260507163028 | 82 | 0 | 0.0 | 3.5 | 0.00 | 0.00 | 0.00 | 20 | 1012.4 |
| 20260507162508 | 82 | 171 | 0.0 | 3.5 | 0.00 | 0.00 | 0.00 | 20 | 1012.6 |
| 20260507162011 | 81 | 0 | 0.0 | 3.5 | 0.00 | 0.00 | 0.00 | 20 | 1012.6 |
| 20260507161530 | 81 | 171 | 0.0 | 3.5 | 0.00 | 0.00 | 0.00 | 20 | 1012.7 |
| 20260507161007 | 81 | 171 | 0.0 | 3.5 | 0.00 | 0.00 | 0.00 | 21 | 1012.7 |
| 20260507160514 | 81 | 172 | 0.9 | 2.6 | 0.00 | 0.00 | 0.00 | 21 | 1012.7 |
| 20260507160034 | 80 | 0 | 0.0 | 2.6 | 0.00 | 0.00 | 0.00 | 21 | 1012.7 |
| 20260507155517 | 79 | 0 | 0.0 | 2.6 | 0.00 | 0.00 | 0.00 | 21 | 1012.7 |
| 20260507155010 | 79 | 173 | 0.0 | 2.6 | 0.00 | 0.00 | 0.00 | 21 | 1012.7 |
| 20260507154528 | 78 | 0 | 0.0 | 2.6 | 0.00 | 0.00 | 0.00 | 22 | 1012.7 |
| 20260507154012 | 78 | 173 | 0.0 | 2.6 | 0.00 | 0.00 | 0.00 | 22 | 1012.8 |
| 20260507153510 | 77 | 175 | 0.0 | 1.7 | 0.00 | 0.00 | 0.00 | 22 | 1012.8 |
| 20260507153032 | 77 | 0 | 0.0 | 2.6 | 0.00 | 0.00 | 0.00 | 22 | 1012.9 |
| 20260507152510 | 77 | 174 | 0.0 | 2.6 | 0.00 | 0.00 | 0.00 | 22 | 1012.8 |
| 20260507152011 | 77 | 0 | 0.0 | 1.7 | 0.00 | 0.00 | 0.00 | 21 | 1012.8 |
| 20260507151528 | 76 | 0 | 0.0 | 1.7 | 0.00 | 0.00 | 0.00 | 22 | 1012.9 |
| 20260507151010 | 75 | 0 | 0.0 | 0.9 | 0.00 | 0.00 | 0.00 | 22 | 1012.9 |
| 20260507150516 | 74 | 0 | 0.0 | 0.9 | 0.00 | 0.00 | 0.00 | 23 | 1012.8 |
| 20260507150030 | 74 | 0 | 0.0 | 0.9 | 0.00 | 0.00 | 0.00 | 23 | 1012.9 |
| 20260507145511 | 74 | 0 | 0.0 | 1.7 | 0.00 | 0.00 | 0.00 | 23 | 1012.9 |
| 20260507145014 | 73 | 178 | 0.0 | 2.6 | 0.00 | 0.00 | 0.00 | 23 | 1012.7 |
| 20260507144530 | 73 | 0 | 0.0 | 2.6 | 0.00 | 0.00 | 0.00 | 24 | 1012.8 |
| 20260507144013 | 72 | 0 | 0.0 | 1.7 | 0.00 | 0.00 | 0.00 | 25 | 1012.8 |
| 20260507143514 | 71 | 148 | 0.0 | 0.9 | 0.00 | 0.00 | 0.00 | 25 | 1012.8 |
| 20260507143048 | 70 | 0 | 0.0 | 0.9 | 0.00 | 0.00 | 0.00 | 26 | 1012.9 |
| 20260507142513 | 69 | 0 | 0.0 | 0.9 | 0.00 | 0.00 | 0.00 | 26 | 1012.9 |
| 20260507142011 | 68 | 0 | 0.0 | 0.9 | 0.00 | 0.00 | 0.00 | 27 | 1012.9 |
| 20260507141538 | 67 | 0 | 0.0 | 1.7 | 0.00 | 0.00 | 0.00 | 29 | 1012.9 |
| 20260507141012 | 66 | 0 | 0.0 | 1.7 | 0.00 | 0.00 | 0.00 | 29 | 1012.9 |
| 20260507140513 | 65 | 0 | 0.0 | 2.6 | 0.00 | 0.00 | 0.00 | 30 | 1012.9 |
| 20260507140030 | 65 | 0 | 0.0 | 2.6 | 0.00 | 0.00 | 0.00 | 31 | 1012.9 |
| 20260507135510 | 64 | 146 | 0.9 | 2.6 | 0.00 | 0.00 | 0.00 | 32 | 1012.8 |
| 20260507135010 | 62 | 0 | 0.0 | 1.7 | 0.00 | 0.00 | 0.00 | 33 | 1012.7 |
| 20260507134528 | 61 | 0 | 0.0 | 2.6 | 0.00 | 0.00 | 0.00 | 34 | 1012.5 |
| 20260507134011 | 60 | 0 | 0.0 | 2.6 | 0.00 | 0.00 | 0.00 | 35 | 1012.5 |
| 20260507133513 | 59 | 294 | 0.0 | 2.6 | 0.00 | 0.00 | 0.00 | 35 | 1012.4 |
| 20260507133028 | 58 | 294 | 0.0 | 0.9 | 0.00 | 0.00 | 0.00 | 37 | 1012.4 |
| 20260507132511 | 58 | 0 | 0.0 | 0.0 | 0.00 | 0.00 | 0.00 | 37 | 1012.4 |
| 20260507132012 | 57 | 0 | 0.0 | 0.0 | 0.00 | 0.00 | 0.00 | 37 | 1012.3 |
| 20260507131527 | 56 | 0 | 0.0 | 0.0 | 0.00 | 0.00 | 0.00 | 39 | 1012.3 |
| 20260507131012 | 56 | 0 | 0.0 | 0.9 | 0.00 | 0.00 | 0.00 | 39 | 1012.2 |
| 20260507130511 | 56 | 0 | 0.0 | 0.9 | 0.00 | 0.00 | 0.00 | 41 | 1012.2 |
| 20260507130038 | 56 | 0 | 0.0 | 0.9 | 0.00 | 0.00 | 0.00 | 41 | 1012.2 |
| 20260507125521 | 56 | 0 | 0.0 | 0.9 | 0.00 | 0.00 | 0.00 | 42 | 1012.1 |
| 20260507125011 | 56 | 0 | 0.0 | 0.9 | 0.00 | 0.00 | 0.00 | 41 | 1012.2 |
| 20260507124529 | 56 | 0 | 0.0 | 0.9 | 0.00 | 0.00 | 0.00 | 41 | 1012.1 |
| 20260507124012 | 57 | 0 | 0.0 | 0.9 | 0.00 | 0.00 | 0.00 | 41 | 1012.2 |
| 20260507123511 | 57 | 0 | 0.0 | 0.9 | 0.00 | 0.00 | 0.00 | 41 | 1012.3 |
| 20260507123031 | 57 | 0 | 0.0 | 0.0 | 0.00 | 0.00 | 0.00 | 41 | 1012.1 |
| 20260507122510 | 57 | 0 | 0.0 | 0.0 | 0.00 | 0.00 | 0.00 | 41 | 1012.2 |
| 20260507122013 | 57 | 0 | 0.0 | 0.0 | 0.00 | 0.00 | 0.00 | 39 | 1012.3 |
| 20260507121531 | 58 | 0 | 0.0 | 0.0 | 0.00 | 0.00 | 0.00 | 39 | 1012.0 |
| 20260507121012 | 58 | 0 | 0.0 | 0.0 | 0.00 | 0.00 | 0.00 | 39 | 1012.1 |
| 20260507120511 | 58 | 0 | 0.0 | 0.0 | 0.00 | 0.00 | 0.00 | 38 | 1012.0 |
| 20260507120028 | 58 | 0 | 0.0 | 0.9 | 0.00 | 0.00 | 0.00 | 37 | 1012.0 |
| 20260507115512 | 59 | 0 | 0.0 | 0.9 | 0.00 | 0.00 | 0.00 | 37 | 1012.0 |
| 20260507115010 | 59 | 291 | 0.0 | 0.9 | 0.00 | 0.00 | 0.00 | 37 | 1012.0 |
| 20260507114530 | 59 | 0 | 0.0 | 1.7 | 0.00 | 0.00 | 0.00 | 37 | 1012.2 |
| 20260507114010 | 59 | 0 | 0.0 | 1.7 | 0.00 | 0.00 | 0.00 | 38 | 1012.0 |
| 20260507113511 | 59 | 0 | 0.0 | 2.6 | 0.00 | 0.00 | 0.00 | 38 | 1012.0 |
| 20260507113029 | 59 | 0 | 0.0 | 2.6 | 0.00 | 0.00 | 0.00 | 37 | 1012.2 |
| 20260507112514 | 59 | 291 | 0.0 | 2.6 | 0.00 | 0.00 | 0.00 | 35 | 1012.3 |
| 20260507112013 | 59 | 0 | 0.0 | 1.7 | 0.00 | 0.00 | 0.00 | 35 | 1012.3 |
| 20260507111530 | 59 | 0 | 0.0 | 1.7 | 0.00 | 0.00 | 0.00 | 35 | 1012.3 |
| 20260507111010 | 59 | 0 | 0.0 | 0.0 | 0.00 | 0.00 | 0.00 | 36 | 1012.3 |
| 20260507110509 | 60 | 0 | 0.0 | 0.0 | 0.00 | 0.00 | 0.00 | 35 | 1012.4 |
| 20260507110030 | 60 | 0 | 0.0 | 0.0 | 0.00 | 0.00 | 0.00 | 35 | 1012.3 |
| 20260507105509 | 60 | 0 | 0.0 | 0.0 | 0.00 | 0.00 | 0.00 | 34 | 1012.3 |
| 20260507105013 | 60 | 0 | 0.0 | 2.6 | 0.00 | 0.00 | 0.00 | 34 | 1012.3 |
| 20260507104530 | 60 | 0 | 0.0 | 2.6 | 0.00 | 0.00 | 0.00 | 34 | 1012.4 |
| 20260507104011 | 60 | 291 | 0.9 | 2.6 | 0.00 | 0.00 | 0.00 | 35 | 1012.4 |
| 20260507103510 | 60 | 0 | 0.0 | 1.7 | 0.00 | 0.00 | 0.00 | 36 | 1012.4 |
| 20260507103029 | 60 | 0 | 0.0 | 1.7 | 0.00 | 0.00 | 0.00 | 36 | 1012.5 |
| 20260507102510 | 61 | 0 | 0.0 | 0.9 | 0.00 | 0.00 | 0.00 | 36 | 1012.4 |
| 20260507102011 | 61 | 0 | 0.0 | 2.6 | 0.00 | 0.00 | 0.00 | 35 | 1012.4 |
| 20260507101530 | 61 | 0 | 0.0 | 2.6 | 0.00 | 0.00 | 0.00 | 36 | 1012.5 |
| 20260507101009 | 61 | 0 | 0.9 | 2.6 | 0.00 | 0.00 | 0.00 | 36 | 1012.5 |
| 20260507100512 | 61 | 0 | 0.0 | 0.9 | 0.00 | 0.00 | 0.00 | 35 | 1012.4 |
| 20260507100035 | 61 | 0 | 0.0 | 0.9 | 0.00 | 0.00 | 0.00 | 35 | 1012.5 |
| 20260507095510 | 61 | 0 | 0.0 | 1.7 | 0.00 | 0.00 | 0.00 | 35 | 1012.4 |
| 20260507095013 | 61 | 0 | 0.0 | 1.7 | 0.00 | 0.00 | 0.00 | 35 | 1012.5 |
| 20260507094531 | 61 | 294 | 0.9 | 1.7 | 0.00 | 0.00 | 0.00 | 35 | 1012.5 |
| 20260507094016 | 61 | 294 | 0.0 | 1.7 | 0.00 | 0.00 | 0.00 | 35 | 1012.5 |
| 20260507093509 | 61 | 0 | 0.0 | 1.7 | 0.00 | 0.00 | 0.00 | 35 | 1012.4 |
| 20260507093028 | 62 | 0 | 0.0 | 1.7 | 0.00 | 0.00 | 0.00 | 34 | 1012.5 |
| 20260507092512 | 62 | 0 | 0.0 | 0.9 | 0.00 | 0.00 | 0.00 | 34 | 1012.4 |
| 20260507092011 | 62 | 0 | 0.0 | 0.9 | 0.00 | 0.00 | 0.00 | 33 | 1012.6 |
| 20260507091534 | 62 | 0 | 0.0 | 0.9 | 0.00 | 0.00 | 0.00 | 33 | 1012.6 |
| 20260507091011 | 62 | 0 | 0.0 | 0.9 | 0.00 | 0.00 | 0.00 | 33 | 1012.5 |
| 20260507090511 | 62 | 0 | 0.0 | 0.9 | 0.00 | 0.00 | 0.00 | 33 | 1012.7 |
| 20260507090027 | 62 | 0 | 0.0 | 0.9 | 0.00 | 0.00 | 0.00 | 33 | 1012.6 |
| 20260507085511 | 62 | 0 | 0.0 | 0.9 | 0.00 | 0.00 | 0.00 | 33 | 1012.7 |
| 20260507085011 | 62 | 0 | 0.0 | 1.7 | 0.00 | 0.00 | 0.00 | 33 | 1012.6 |
| 20260507084531 | 61 | 0 | 0.0 | 1.7 | 0.00 | 0.00 | 0.00 | 34 | 1012.7 |
| 20260507084010 | 61 | 0 | 0.0 | 0.0 | 0.00 | 0.00 | 0.00 | 34 | 1012.7 |
| 20260507083510 | 62 | 0 | 0.0 | 0.9 | 0.00 | 0.00 | 0.00 | 34 | 1012.7 |
| 20260507083026 | 62 | 0 | 0.0 | 0.9 | 0.00 | 0.00 | 0.00 | 34 | 1012.8 |
| 20260507082514 | 62 | 0 | 0.0 | 0.9 | 0.00 | 0.00 | 0.00 | 34 | 1012.8 |
| 20260507082012 | 62 | 0 | 0.0 | 0.9 | 0.00 | 0.00 | 0.00 | 34 | 1012.9 |
| 20260507081529 | 62 | 0 | 0.0 | 0.0 | 0.00 | 0.00 | 0.00 | 33 | 1012.8 |
| 20260507081010 | 62 | 0 | 0.0 | 0.0 | 0.00 | 0.00 | 0.00 | 33 | 1012.9 |
| 20260507080513 | 63 | 0 | 0.0 | 0.0 | 0.00 | 0.00 | 0.00 | 33 | 1012.9 |
| 20260507080029 | 63 | 0 | 0.0 | 0.0 | 0.00 | 0.00 | 0.00 | 32 | 1013.0 |
| 20260507075511 | 63 | 0 | 0.0 | 0.0 | 0.00 | 0.00 | 0.00 | 32 | 1013.0 |
| 20260507075011 | 64 | 0 | 0.0 | 0.9 | 0.00 | 0.00 | 0.00 | 31 | 1013.1 |
| 20260507074530 | 64 | 0 | 0.0 | 0.9 | 0.00 | 0.00 | 0.00 | 31 | 1013.0 |
| 20260507074014 | 64 | 0 | 0.0 | 0.9 | 0.00 | 0.00 | 0.00 | 31 | 1013.0 |
| 20260507073511 | 64 | 0 | 0.0 | 0.9 | 0.00 | 0.00 | 0.00 | 30 | 1013.1 |
| 20260507073032 | 64 | 0 | 0.0 | 0.0 | 0.00 | 0.00 | 0.00 | 30 | 1013.1 |
| 20260507072513 | 64 | 0 | 0.0 | 0.0 | 0.00 | 0.00 | 0.00 | 30 | 1013.0 |
| 20260507072011 | 64 | 0 | 0.0 | 0.9 | 0.00 | 0.00 | 0.00 | 31 | 1013.1 |
| 20260507071533 | 64 | 0 | 0.0 | 0.9 | 0.00 | 0.00 | 0.00 | 31 | 1013.0 |
| 20260507071011 | 64 | 0 | 0.0 | 0.0 | 0.00 | 0.00 | 0.00 | 31 | 1013.1 |
| 20260507070510 | 64 | 0 | 0.0 | 0.0 | 0.00 | 0.00 | 0.00 | 31 | 1012.9 |
| 20260507070034 | 65 | 0 | 0.0 | 0.0 | 0.00 | 0.00 | 0.00 | 31 | 1012.9 |
| 20260507065510 | 65 | 0 | 0.0 | 0.0 | 0.00 | 0.00 | 0.00 | 32 | 1012.9 |
| 20260507065010 | 65 | 0 | 0.0 | 0.0 | 0.00 | 0.00 | 0.00 | 32 | 1013.0 |
| 20260507064544 | 65 | 0 | 0.0 | 0.0 | 0.00 | 0.00 | 0.00 | 33 | 1013.1 |
| 20260507064112 | 65 | 0 | 0.0 | 0.0 | 0.00 | 0.00 | 0.00 | 33 | 1012.9 |
| 20260507063511 | 65 | 0 | 0.0 | 0.0 | 0.00 | 0.00 | 0.00 | 32 | 1013.1 |
| 20260507063034 | 65 | 0 | 0.0 | 0.0 | 0.00 | 0.00 | 0.00 | 32 | 1013.2 |
| 20260507062517 | 66 | 0 | 0.0 | 0.0 | 0.00 | 0.00 | 0.00 | 32 | 1013.0 |
| 20260507062011 | 65 | 0 | 0.0 | 0.0 | 0.00 | 0.00 | 0.00 | 32 | 1013.0 |
| 20260507061531 | 65 | 0 | 0.0 | 0.9 | 0.00 | 0.00 | 0.00 | 32 | 1012.9 |
| 20260507061012 | 65 | 0 | 0.0 | 0.9 | 0.00 | 0.00 | 0.00 | 32 | 1013.0 |
| 20260507060511 | 66 | 0 | 0.0 | 0.0 | 0.00 | 0.00 | 0.00 | 31 | 1012.9 |
| 20260507060028 | 66 | 0 | 0.0 | 0.0 | 0.00 | 0.00 | 0.00 | 31 | 1012.9 |
| 20260507055511 | 66 | 0 | 0.0 | 0.0 | 0.00 | 0.00 | 0.00 | 31 | 1012.9 |
| 20260507055012 | 67 | 0 | 0.0 | 0.0 | 0.00 | 0.00 | 0.00 | 30 | 1013.1 |
| 20260507054530 | 67 | 0 | 0.0 | 0.0 | 0.00 | 0.00 | 0.00 | 30 | 1013.1 |
| 20260507054013 | 68 | 0 | 0.0 | 0.0 | 0.00 | 0.00 | 0.00 | 29 | 1013.0 |
| 20260507053510 | 68 | 0 | 0.0 | 0.0 | 0.00 | 0.00 | 0.00 | 29 | 1013.0 |
| 20260507053028 | 68 | 0 | 0.0 | 0.0 | 0.00 | 0.00 | 0.00 | 29 | 1013.1 |
| 20260507052509 | 69 | 0 | 0.0 | 0.9 | 0.00 | 0.00 | 0.00 | 29 | 1012.8 |
| 20260507052010 | 69 | 0 | 0.0 | 0.9 | 0.00 | 0.00 | 0.00 | 28 | 1012.9 |
| 20260507051528 | 69 | 0 | 0.0 | 1.7 | 0.00 | 0.00 | 0.00 | 28 | 1012.9 |
| 20260507051009 | 69 | 0 | 0.0 | 1.7 | 0.00 | 0.00 | 0.00 | 28 | 1012.9 |
| 20260507050511 | 69 | 292 | 0.0 | 0.9 | 0.00 | 0.00 | 0.00 | 29 | 1012.7 |
| 20260507050038 | 69 | 292 | 0.0 | 0.9 | 0.00 | 0.00 | 0.00 | 29 | 1012.6 |
| 20260507045515 | 69 | 0 | 0.0 | 0.9 | 0.00 | 0.00 | 0.00 | 29 | 1012.7 |
| 20260507045014 | 69 | 0 | 0.0 | 0.0 | 0.00 | 0.00 | 0.00 | 29 | 1012.8 |
| 20260507044527 | 69 | 0 | 0.0 | 0.0 | 0.00 | 0.00 | 0.00 | 29 | 1012.7 |
| 20260507044010 | 69 | 0 | 0.0 | 0.0 | 0.00 | 0.00 | 0.00 | 30 | 1012.7 |
| 20260507043510 | 70 | 0 | 0.0 | 0.0 | 0.00 | 0.00 | 0.00 | 30 | 1012.6 |
| 20260507043030 | 70 | 0 | 0.0 | 0.0 | 0.00 | 0.00 | 0.00 | 31 | 1012.6 |
| 20260507042510 | 70 | 0 | 0.0 | 0.0 | 0.00 | 0.00 | 0.00 | 31 | 1012.7 |
| 20260507042009 | 69 | 0 | 0.0 | 0.0 | 0.00 | 0.00 | 0.00 | 31 | 1012.5 |
| 20260507041530 | 69 | 0 | 0.0 | 0.0 | 0.00 | 0.00 | 0.00 | 30 | 1012.5 |
| 20260507041010 | 70 | 0 | 0.0 | 0.0 | 0.00 | 0.00 | 0.00 | 29 | 1012.5 |
| 20260507040513 | 70 | 0 | 0.0 | 0.0 | 0.00 | 0.00 | 0.00 | 29 | 1012.3 |
| 20260507040029 | 70 | 0 | 0.0 | 0.0 | 0.00 | 0.00 | 0.00 | 28 | 1012.3 |
| 20260507035511 | 71 | 0 | 0.0 | 0.0 | 0.00 | 0.00 | 0.00 | 28 | 1012.3 |
| 20260507035011 | 71 | 0 | 0.0 | 0.0 | 0.00 | 0.00 | 0.00 | 28 | 1012.2 |
| 20260507034529 | 71 | 0 | 0.0 | 0.0 | 0.00 | 0.00 | 0.00 | 27 | 1012.3 |
| 20260507034012 | 72 | 0 | 0.0 | 0.0 | 0.00 | 0.00 | 0.00 | 27 | 1012.2 |
| 20260507033508 | 72 | 0 | 0.0 | 0.0 | 0.00 | 0.00 | 0.00 | 26 | 1012.2 |
| 20260507033030 | 72 | 0 | 0.0 | 0.0 | 0.00 | 0.00 | 0.00 | 26 | 1012.0 |
| 20260507032511 | 73 | 0 | 0.0 | 0.9 | 0.00 | 0.00 | 0.00 | 26 | 1012.0 |
| 20260507032014 | 73 | 0 | 0.0 | 0.9 | 0.00 | 0.00 | 0.00 | 25 | 1012.0 |
| 20260507031533 | 73 | 0 | 0.0 | 0.9 | 0.00 | 0.00 | 0.00 | 25 | 1012.0 |
| 20260507031010 | 74 | 0 | 0.0 | 0.0 | 0.00 | 0.00 | 0.00 | 24 | 1011.9 |
| 20260507030516 | 74 | 0 | 0.0 | 0.0 | 0.00 | 0.00 | 0.00 | 24 | 1011.8 |
| 20260507030030 | 75 | 0 | 0.0 | 0.0 | 0.00 | 0.00 | 0.00 | 24 | 1011.7 |
| 20260507025511 | 75 | 0 | 0.0 | 0.0 | 0.00 | 0.00 | 0.00 | 24 | 1011.7 |
| 20260507025010 | 76 | 0 | 0.0 | 0.0 | 0.00 | 0.00 | 0.00 | 23 | 1011.6 |
| 20260507024530 | 76 | 0 | 0.0 | 0.0 | 0.00 | 0.00 | 0.00 | 23 | 1011.6 |
| 20260507024009 | 77 | 0 | 0.0 | 0.0 | 0.00 | 0.00 | 0.00 | 23 | 1011.6 |
| 20260507023510 | 77 | 0 | 0.0 | 0.9 | 0.00 | 0.00 | 0.00 | 22 | 1011.6 |
| 20260507023030 | 77 | 0 | 0.0 | 0.9 | 0.00 | 0.00 | 0.00 | 22 | 1011.5 |
| 20260507022509 | 78 | 0 | 0.0 | 0.9 | 0.00 | 0.00 | 0.00 | 21 | 1011.4 |
| 20260507022011 | 78 | 0 | 0.0 | 1.7 | 0.00 | 0.00 | 0.00 | 21 | 1011.4 |
| 20260507021527 | 78 | 0 | 0.0 | 1.7 | 0.00 | 0.00 | 0.00 | 21 | 1011.3 |
| 20260507021011 | 79 | 0 | 0.0 | 2.6 | 0.00 | 0.00 | 0.00 | 21 | 1011.4 |
| 20260507020509 | 79 | 0 | 0.0 | 2.6 | 0.00 | 0.00 | 0.00 | 20 | 1011.1 |
| 20260507020029 | 79 | 292 | 0.0 | 2.6 | 0.00 | 0.00 | 0.00 | 20 | 1011.2 |
| 20260507015511 | 80 | 0 | 0.0 | 1.7 | 0.00 | 0.00 | 0.00 | 19 | 1011.3 |
| 20260507015013 | 80 | 293 | 0.0 | 1.7 | 0.00 | 0.00 | 0.00 | 19 | 1011.2 |
| 20260507014527 | 80 | 0 | 0.0 | 1.7 | 0.00 | 0.00 | 0.00 | 19 | 1011.3 |
| 20260507014011 | 81 | 0 | 0.0 | 2.6 | 0.00 | 0.00 | 0.00 | 18 | 1011.2 |
| 20260507013510 | 81 | 294 | 0.0 | 2.6 | 0.00 | 0.00 | 0.00 | 18 | 1011.3 |
| 20260507013031 | 81 | 294 | 0.0 | 3.5 | 0.00 | 0.00 | 0.00 | 18 | 1011.2 |
| 20260507012511 | 81 | 0 | 0.9 | 3.5 | 0.00 | 0.00 | 0.00 | 18 | 1011.1 |
| 20260507012011 | 81 | 298 | 1.7 | 4.3 | 0.00 | 0.00 | 0.00 | 18 | 1011.2 |
| 20260507011533 | 82 | 309 | 1.7 | 4.3 | 0.00 | 0.00 | 0.00 | 18 | 1011.2 |
| 20260507011009 | 82 | 306 | 1.7 | 5.2 | 0.00 | 0.00 | 0.00 | 18 | 1011.2 |
| 20260507010511 | 82 | 310 | 1.7 | 6.1 | 0.00 | 0.00 | 0.00 | 18 | 1011.2 |
| 20260507010038 | 83 | 271 | 2.6 | 7.8 | 0.00 | 0.00 | 0.00 | 18 | 1011.2 |
| 20260507005511 | 83 | 267 | 2.6 | 7.8 | 0.00 | 0.00 | 0.00 | 17 | 1011.3 |